Location: Roswell
(33.3940°N, 104.5230°W)
Time: 23:36:38
(UTC-06:00)

X-37B - Visible Passes

Search period start: 25 October 2021 00:00
Search period end: 04 November 2021 00:00
Orbit: 445 x 447 km, 45.0° (Epoch: 24 October)

Date Brightness Start Highest point End Pass type
(mag) Time Alt. Az. Time Alt. Az. Time Alt. Az.
25 Oct 2.3 19:00:26 10° NW 19:03:24 24° NNE 19:05:10 17° ENE visible
25 Oct 4.0 20:38:03 10° WNW 20:38:40 14° WNW 20:38:40 14° WNW visible
26 Oct 1.6 19:58:27 10° WNW 20:01:15 52° WNW 20:01:15 52° WNW visible
27 Oct 0.7 19:18:54 10° NW 19:22:26 80° NNE 19:24:00 31° ESE visible
28 Oct 1.0 18:39:22 10° NW 18:42:53 60° NNE 18:46:22 10° ESE visible
28 Oct 3.6 20:18:17 10° W 20:20:29 16° SW 20:20:29 16° SW visible
29 Oct 3.2 19:38:17 10° W 19:41:03 21° SW 19:43:42 10° S visible
30 Oct 2.9 18:58:28 10° WNW 19:01:34 29° SW 19:04:39 10° SSE visible
